Tracking 19794 objects as of 22-Jul-2019
HD Live streaming from Space Station
objects crossing your sky now

HINCUBE

Track HINCUBE now!
10-day predictions
HINCUBE is classified as:


NORAD ID: 39445
Int'l Code: 2013-066AF
Perigee: 591.2 km
Apogee: 670.3 km
Inclination: 97.6 °
Period: 97.2 minutes
Semi major axis: 7001 km
RCS: Unknown
Launch date: November 21, 2013
Source: Norway (NOR)
Launch site: Orenburg, Russia (OREN)

Uplink (MHz):
Downlink (MHz): 437.305
Beacon (MHz):
Mode:
Call sign:
Status: Inactive

aabbcc
Your satellite tracking list
Your tracking list is empty




NASA's NSSDC Master Catalog

Two Line Element Set (TLE):
1 39445U 13066AF  19202.58922400 +.00000132 +00000-0 +22814-4 0  9992
2 39445 097.5609 216.1165 0056477 281.4114 078.0759 14.81800091304178
Source of the keplerian elements: AFSPC